TimeEDT,TemperatureF,Dew PointF,Humidity,Sea Level PressureIn,VisibilityMPH,Wind Direction,Wind SpeedMPH,Gust SpeedMPH,PrecipitationIn,Events,Conditions,WindDirDegrees,DateUTC
12:53 AM,68.0,64.0,87,29.98,8.0,WSW,8.1,-,N/A,,Clear,240,2013-06-25 04:53:00
1:53 AM,69.1,64.0,84,29.98,10.0,SW,8.1,-,N/A,,Clear,230,2013-06-25 05:53:00
2:19 AM,69.8,64.4,83,29.99,10.0,SW,5.8,-,N/A,Thunderstorm,Thunderstorm,220,2013-06-25 06:19:00
2:36 AM,69.8,64.4,83,29.99,10.0,SW,6.9,-,0.00,Rain-Thunderstorm,Light Rain,230,2013-06-25 06:36:00
2:53 AM,69.1,64.0,84,29.97,2.5,SW,4.6,-,0.07,Rain-Thunderstorm,Heavy Thunderstorms and Rain,230,2013-06-25 06:53:00
2:58 AM,69.8,64.4,83,29.99,3.0,SW,4.6,-,0.00,Rain-Thunderstorm,Light Thunderstorms and Rain,230,2013-06-25 06:58:00
3:08 AM,69.8,64.4,83,30.00,1.8,WSW,10.4,-,0.14,Rain-Thunderstorm,Heavy Thunderstorms and Rain,250,2013-06-25 07:08:00
3:20 AM,69.8,64.4,83,29.99,3.0,SW,9.2,-,0.20,Rain-Thunderstorm,Thunderstorms and Rain,230,2013-06-25 07:20:00
3:48 AM,69.8,64.4,83,29.98,10.0,SSE,3.5,-,0.20,Thunderstorm,Overcast,150,2013-06-25 07:48:00
3:53 AM,69.1,64.9,87,29.96,10.0,SSE,4.6,-,0.20,Thunderstorm,Overcast,150,2013-06-25 07:53:00
3:55 AM,69.8,64.4,83,29.98,10.0,SSE,4.6,-,N/A,,Overcast,160,2013-06-25 07:55:00
4:03 AM,68.0,64.4,88,29.97,10.0,SSE,4.6,-,N/A,,Mostly Cloudy,160,2013-06-25 08:03:00
4:53 AM,69.1,64.9,87,29.96,9.0,SSE,5.8,-,N/A,,Clear,160,2013-06-25 08:53:00
5:53 AM,71.1,66.0,84,29.95,6.0,SSW,12.7,-,N/A,,Haze,210,2013-06-25 09:53:00
6:53 AM,71.1,66.9,87,29.97,4.0,SSW,9.2,-,N/A,,Mostly Cloudy,210,2013-06-25 10:53:00
7:16 AM,71.6,66.2,83,30.02,5.0,North,11.5,18.4,N/A,,Haze,350,2013-06-25 11:16:00
7:53 AM,72.0,66.9,84,29.97,4.0,Calm,Calm,-,N/A,,Haze,0,2013-06-25 11:53:00
8:42 AM,73.4,68.0,83,29.99,3.0,Calm,Calm,-,N/A,,Haze,0,2013-06-25 12:42:00
8:53 AM,73.0,68.0,84,29.98,3.0,ENE,3.5,-,N/A,,Haze,70,2013-06-25 12:53:00
9:00 AM,73.4,68.0,83,29.99,2.5,East,3.5,-,N/A,,Haze,90,2013-06-25 13:00:00
9:23 AM,73.4,69.8,88,29.99,3.0,ESE,4.6,-,N/A,,Haze,110,2013-06-25 13:23:00
9:35 AM,73.4,68.0,83,30.00,3.0,Calm,Calm,-,N/A,Thunderstorm,Unknown,0,2013-06-25 13:35:00
9:53 AM,73.0,69.1,87,29.98,2.5,SSE,4.6,-,N/A,Thunderstorm,Overcast,150,2013-06-25 13:53:00
10:01 AM,73.4,68.0,83,29.99,2.5,South,5.8,-,N/A,,Haze,190,2013-06-25 14:01:00
10:27 AM,73.4,69.8,88,29.99,3.0,South,5.8,-,N/A,,Haze,170,2013-06-25 14:27:00
10:53 AM,75.9,69.1,79,29.97,3.0,South,10.4,-,N/A,,Haze,180,2013-06-25 14:53:00
11:01 AM,75.2,69.8,83,29.99,3.0,South,11.5,-,N/A,Thunderstorm,Unknown,190,2013-06-25 15:01:00
11:09 AM,75.2,69.8,83,29.97,1.8,South,10.4,-,0.03,Rain-Thunderstorm,Thunderstorms and Rain,170,2013-06-25 15:09:00
11:24 AM,73.4,69.8,88,29.99,2.5,SSW,4.6,-,0.04,Thunderstorm,Mostly Cloudy,200,2013-06-25 15:24:00
11:28 AM,73.4,69.8,88,29.99,2.5,SSW,3.5,-,0.04,,Haze,210,2013-06-25 15:28:00
11:53 AM,75.0,70.0,84,29.96,2.5,SSW,4.6,-,0.04,,Haze,200,2013-06-25 15:53:00
12:17 PM,77.0,71.6,83,29.97,3.0,SSW,5.8,-,N/A,,Haze,210,2013-06-25 16:17:00
12:53 PM,80.1,72.0,76,29.96,4.0,SW,8.1,-,N/A,,Haze,220,2013-06-25 16:53:00
1:53 PM,82.9,73.0,72,29.93,7.0,WSW,10.4,-,N/A,,Partly Cloudy,250,2013-06-25 17:53:00
2:53 PM,86.0,73.0,65,29.88,10.0,SW,12.7,18.4,N/A,,Partly Cloudy,220,2013-06-25 18:53:00
3:53 PM,88.0,72.0,59,29.86,10.0,SSW,17.3,21.9,N/A,,Clear,200,2013-06-25 19:53:00
4:53 PM,88.0,71.1,57,29.86,10.0,WSW,15.0,24.2,N/A,,Scattered Clouds,240,2013-06-25 20:53:00
5:53 PM,88.0,70.0,55,29.82,10.0,SW,16.1,24.2,N/A,,Clear,230,2013-06-25 21:53:00
6:53 PM,86.0,71.1,61,29.83,10.0,SW,10.4,-,N/A,,Mostly Cloudy,220,2013-06-25 22:53:00
7:26 PM,84.2,71.6,66,29.83,10.0,SW,10.4,-,N/A,Thunderstorm,Mostly Cloudy,220,2013-06-25 23:26:00
7:53 PM,84.9,72.0,65,29.81,10.0,SW,10.4,-,N/A,Thunderstorm,Scattered Clouds,220,2013-06-25 23:53:00
8:03 PM,84.2,71.6,66,29.82,10.0,SW,10.4,-,N/A,,Partly Cloudy,220,2013-06-26 00:03:00
8:28 PM,82.4,71.6,70,29.82,10.0,SW,8.1,-,N/A,Thunderstorm,Mostly Cloudy,230,2013-06-26 00:28:00
8:53 PM,82.9,72.0,69,29.81,10.0,WSW,12.7,-,N/A,,Mostly Cloudy,250,2013-06-26 00:53:00
9:17 PM,82.4,71.6,70,29.84,10.0,West,9.2,-,N/A,Thunderstorm,Thunderstorm,270,2013-06-26 01:17:00
9:53 PM,77.0,70.0,79,29.85,2.0,WNW,35.7,51.8,0.13,Rain-Thunderstorm,Thunderstorms and Rain,300,2013-06-26 01:53:00
9:58 PM,71.6,66.2,83,29.85,0.8,NW,34.5,51.8,0.23,Rain-Thunderstorm,Heavy Thunderstorms and Rain,310,2013-06-26 01:58:00
10:03 PM,69.8,66.2,88,29.86,1.0,NW,20.7,49.5,0.26,Rain-Thunderstorm,Heavy Thunderstorms and Rain,310,2013-06-26 02:03:00
10:07 PM,69.8,64.4,83,29.86,3.0,WNW,24.2,43.7,0.26,Rain-Thunderstorm,Light Thunderstorms and Rain,300,2013-06-26 02:07:00
10:53 PM,70.0,64.9,84,29.90,9.0,ESE,8.1,-,0.30,Rain,Light Rain,120,2013-06-26 02:53:00
11:53 PM,69.1,64.9,87,29.86,10.0,SSE,9.2,-,0.08,Rain,Light Rain,150,2013-06-26 03:53:00